Regional Weather Roundup
Issued by NWS

Home | Current Version | Previous Version | Graphics & Text | Print | Product List | Glossary Off
Versions: 1 2 3 4 5 6 7 8 9 10 11 12 13 14 15 16 17 18 19 20 21 22 23 24 25 26 27 28 29 30 31 32 33 34 35 36 37 38 39 40 41 42 43 44 45 46 47 48 49 50

000
ASUS43 KMPX 260201
RWRMN
WEATHER ROUNDUP FOR MINNESOTA
NATIONAL WEATHER SERVICE TWIN CITIES/CHANHASSEN MN
900 PM CDT MON JUL 25 2016


NOTE: "FAIR" INDICATES FEW OR NO CLOUDS BELOW 12,000 FEET WITH NO
SIGNIFICANT WEATHER AND/OR OBSTRUCTIONS TO VISIBILITY. N/A MEANS
CURRENT SKY AND/OR WEATHER CONDITIONS ARE NOT AVAILABLE.

MNZ060>063-068>070-260300-
   Twin Cities Metro

CITY           SKY/WX    TMP DP  RH WIND       PRES   REMARKS
TWIN CITIES    CLEAR     82  63  52 W6        30.02S
ST PAUL        CLEAR     80  64  58 W7        30.02R
CRYSTAL        CLEAR     80  62  54 SW5       30.01S
BLAINE         CLEAR     81  64  57 W5        30.02S
LAKEVILLE      CLEAR     73  66  78 CALM      30.04S
EDEN PRAIRIE   CLEAR     80  63  55 W3        30.02S
LAKEVILLE      CLEAR     73  66  78 CALM      30.04S
SOUTH ST PAUL  CLEAR     80  64  57 W5        30.02R
LAKE ELMO      FAIR      79  64  61 CALM      30.03S
$$
MNZ001>005-007-008-013>017-022>024-027-028-260300-
   Northwest Minnesota

CITY           SKY/WX    TMP DP  RH WIND       PRES   REMARKS
BEMIDJI        CLEAR     77  64  65 S3        29.97F
HALLOCK        CLEAR     77  70  78 SE3       29.91F
ROSEAU         CLEAR     75  68  78 SW3       29.94F
WARROAD        CLEAR     75  68  78 SW3       29.94S
THIEF RVR FALL MOCLDY    79  69  71 E6        29.94F
CROOKSTON      PTCLDY    81  70  69 SE6       29.91S
FOSSTON        CLEAR     75  66  73 S6        29.96S
DETROIT LAKES  CLEAR     77  64  65 S6        29.99S
MOORHEAD       CLEAR     81  68  65 SE7       29.93S
PARK RAPIDS    CLEAR     79  66  64 S6        29.99F
MAHNOMEN       FAIR      77  69  78 SE5       29.95F
$$
MNZ006-009>011-018-025>026-260300-
   North Central Minnesota

CITY           SKY/WX    TMP DP  RH WIND       PRES   REMARKS
BAUDETTE       CLEAR     74  64  71 S3        29.95S
FLAG ISLAND    CLEAR     77  61  57 W8        29.93R
INTL FALLS     CLEAR     68  62  81 CALM      29.95S
WASKISH        CLEAR     73  66  78 CALM      29.96S
BIG FORK       CLEAR     70  64  83 CALM      29.98S
LONGVILLE      CLEAR     73  66  78 S3        30.00R
GRAND RAPIDS   CLEAR     70  66  87 CALM      30.01S
CRANE LAKE     CLEAR     66  64  94 CALM      29.97R
ORR            CLEAR     73  61  64 CALM      29.95
COOK           CLEAR     73  63  68 CALM      29.98S
WALKER         FAIR      75  66  72 S3        29.99S
$$
MNZ012-019>021-037-260300-
   Northeast Minnesota

CITY           SKY/WX    TMP DP  RH WIND       PRES   REMARKS
DULUTH         CLEAR     73  64  73 W6        30.00R
ELY            CLEAR     73  61  64 W5        29.97S
HIBBING        CLEAR     69  64  84 SW3       29.99R
EVELETH        CLEAR     73  62  68 CALM      30.00S
DULUTH HARBOR  CLEAR     81  68  65 SW5       29.97R
TWO HARBORS    CLEAR     73  66  78 CALM      29.96R
SILVER BAY     CLEAR     70  64  83 CALM      29.95S
GRAND MARAIS     N/A     59  54  83 W5        29.93S
G MARAIS ARPRT CLEAR     64  55  72 CALM      30.00R
$$
MNZ029>031-032-039>041-046>048-054>057-064-260300-
   West Central Minnesota

CITY           SKY/WX    TMP DP  RH WIND       PRES   REMARKS
FERGUS FALLS   CLEAR     77  66  69 MISG      29.97S
WHEATON        CLEAR     79  68  69 S8        29.98S
MORRIS         CLEAR     73  66  78 S7        29.99S
ALEXANDRIA     PTCLDY    78  66  66 S7        30.02S
ELBOW LAKE     FAIR      74  68  82 S9        29.99S
WADENA         CLEAR     75  66  73 S3        30.00S
GLENWOOD       CLEAR     73  68  83 S6        30.03S
APPLETON       CLEAR     79  63  57 S5        30.00R
BENSON         CLEAR     75  66  73 S5        30.01S
ORTONVILLE     CLEAR     77  64  65 CALM      29.99S
MADISON        CLEAR     73  64  73 S6        30.01S
WILLMAR        FAIR      77  70  78 CALM      30.04R
$$
MNZ033>034-036-042>043-049>051-058-059-260300-
   Central Minnesota

CITY           SKY/WX    TMP DP  RH WIND       PRES   REMARKS
ST CLOUD       CLEAR     75  68  78 S5        30.02R
SAUK CENTRE    FAIR      75  69  81 CALM      30.02S
PAYNESVILLE    CLEAR     76  66  71 S3        30.03S
AITKIN         CLEAR     73  64  73 CALM      30.00R
PINE RIVER     CLEAR     73  66  78 CALM      30.03S
BRAINERD       CLEAR     75  64  68 S5        30.01R
STAPLES        CLEAR     73  66  78 S3        30.00S
LONG PRAIRIE   FAIR      72  68  88 SE3       30.02S
LITTLE FALLS   CLEAR     75  64  69 CALM      30.02R
LITCHFIELD     CLEAR     77  72  83 CALM      30.03S
BUFFALO        CLEAR     78  66  66 CALM      30.03S
MAPLE LAKE     CLEAR     75  68  79 CALM      30.03S
HUTCHINSON     CLEAR     76  71  85 CALM      30.04S
$$
MNZ037-044-045-052-053-260300-
   East Central Minnesota

CITY           SKY/WX    TMP DP  RH WIND       PRES   REMARKS
PRINCETON      CLEAR     79  66  65 CALM      30.02S
MORA           CLEAR     75  64  69 CALM      30.03R
CAMBRIDGE      CLEAR     79  64  61 CALM      30.00S
RUSH CITY      CLEAR     72  67  84 CALM      30.01S
MOOSE LAKE     CLEAR     70  64  83 CALM      29.99R
HINCKLEY       FAIR      73  68  83 CALM      30.01R
CLOQUET        CLEAR     75  61  60 SW3       30.00S
MCGREGOR       CLEAR     77  64  65 SW3       30.01R
$$
MNZ071>073-080-081-089-090-097-098-260300-
   Southwest Minnesota

CITY           SKY/WX    TMP DP  RH WIND       PRES   REMARKS
MONTEVIDEO     CLEAR     77  64  65 SW3       30.03S
GRANITE FALLS  CLEAR     77  72  83 S6        30.03S
CANBY          CLEAR     77  65  67 CALM      30.03S
MARSHALL       CLEAR     79  66  64 S6        30.03S
REDWOOD FALLS  CLEAR     78  67  68 S5        30.02S
OLIVIA         CLEAR     77  68  73 S3        30.03R
PIPESTONE      CLEAR     75  66  73 S6        30.06S
WINDOM         CLEAR     79  66  65 CALM      30.06S
WORTHINGTON    CLEAR     76  65  68 MISG      30.08R
JACKSON        CLEAR     75  64  69 SW3       30.08R
TRACY          CLEAR     77  66  69 S5        30.04F
SLAYTON        CLEAR     75  67  77 S3        30.07S
$$
MNZ065>067-074>077-082>085-091>093-260300-
   South Central Minnesota

CITY           SKY/WX    TMP DP  RH WIND       PRES   REMARKS
MANKATO        CLEAR     79  64  61 CALM      30.04S
NEW ULM        CLEAR     79  66  65 CALM      30.04R
ST JAMES       CLEAR     72  66  83 CALM      30.05S
FAIRMONT       CLEAR     77  66  69 SE3       30.05S
GLENCOE        CLEAR     76  71  84 CALM      30.03S
FARIBAULT      CLEAR     72  70  94 CALM      30.05S
OWATONNA       CLEAR     72  66  83 CALM      30.06R
WASECA         CLEAR     73  64  73 CALM      30.06S
ALBERT LEA     CLEAR     73  66  78 CALM      30.06S
$$
MNZ078>079-086>088-094>096-260300-
   Southeast Minnesota

CITY           SKY/WX    TMP DP  RH WIND       PRES   REMARKS
ROCHESTER      CLEAR     72  67  84 W6        30.06R
RED WING       CLEAR     73  70  88 CALM      30.02R
STANTON        CLEAR     77  64  65 CALM      30.03R
DODGE CENTER   CLEAR     73  63  68 W3        30.06S
WINONA         CLEAR     73  63  68 CALM      30.03R
AUSTIN         CLEAR     73  64  73 CALM      30.06S
PRESTON        CLEAR     73  64  72 NW3       30.06S
$$
ABBREVIATIONS USED IN REMARKS
   TC - TEMPERATURES IN CELSIUS
  WCI - WIND CHILL INDEX
   HX - HEAT INDEX
  VSB - VISIBILITY
$$




USA.gov is the U.S. government's official web portal to all federal, state and local government web resources and services.